Weather History for Chillicothe, MO

Change the Weather History Date:

Friday, July 26, 2013

  Actual Average (KIRK) Record (KIRK)
Temperature  
Mean Temperature 75 °F 76 °F  
Max Temperature 86 °F 86 °F 107 °F (1936)
Min Temperature 64 °F 65 °F 48 °F (1962)
Degree Days  
Heating Degree Days 0 0  
Month to date heating degree days 0  
Since 1 June heating degree days 16  
Since 1 July heating degree days 0  
Cooling Degree Days 10 11  
Month to date cooling degree days 261  
Year to date cooling degree days 515  
Since 1 June cooling degree days 453  
Growing Degree Days 25 (Base 50)    
Moisture  
Dew Point 63 °F    
Average Humidity 70    
Maximum Humidity 93    
Minimum Humidity 38    
Precipitation  
Precipitation 1.08 in 0.16 in 1.88 in (1981)
Month to date precipitation 3.86  
Year to date precipitation 22.79  
Sea Level Pressure  
Sea Level Pressure 29.99 in    
Wind  
Wind Speed 3 mph (North)    
Max Wind Speed 9 mph    
Max Gust Speed 17 mph    
T = Trace of Precipitation, MM = Missing Value Source: NWS Daily Summary

Daily Weather History Graph

Daily Weather History Graph

Search for Another Location

Airport:

Trip Planner

Search our weather history database for the weather conditions in past years. The results will help you decide how hot, cold, wet, or windy it might be!

Date:

Astronomy

Jul. 26, 2013 Rise Set
Actual Time 6:07 AM CDT 8:33 PM CDT
Civil Twilight 5:37 AM CDT 9:03 PM CDT
Nautical Twilight 4:59 AM CDT 9:41 PM CDT
Astronomical Twilight 4:16 AM CDT 10:23 PM CDT
Moon 10:48 PM CDT (7/26) 10:44 AM CDT (7/26)
Length of Visible Light 15h 26m
Length of Day
14h 25m
Waning Gibbous, 80% of the Moon is Illuminated
Jul 26
Waning Gibbous
Jul 29
Last Quarter
Aug 6
New
Aug 14
First Quarter
Aug 20
Full

Hourly Weather History & Observations

Time (CDT) Temp. Heat Index Dew Point Humidity Pressure Visibility Wind Dir Wind Speed Gust Speed Precip Events Conditions
12:52 AM 71.1 °F - 66.0 °F 84% 30.01 in - Calm Calm - N/A   Unknown
1:52 AM 71.1 °F - 66.0 °F 84% 29.99 in - Calm Calm - N/A   Unknown
2:52 AM 71.1 °F - 66.0 °F 84% 29.97 in - Calm Calm - N/A   Unknown
3:52 AM 70.0 °F - 64.9 °F 84% 29.96 in - SSE 3.5 mph - N/A   Unknown
4:52 AM 69.1 °F - 66.0 °F 90% 29.98 in - North 6.9 mph - 0.28 in   Unknown
5:52 AM 68.0 °F - 66.0 °F 93% 29.99 in - Calm Calm - 0.61 in   Unknown
6:52 AM 69.1 °F - 66.0 °F 90% 29.99 in - SE 3.5 mph - 0.19 in   Unknown
7:52 AM 69.1 °F - 66.9 °F 93% 29.99 in - South 4.6 mph - N/A   Unknown
8:52 AM 71.1 °F - 68.0 °F 90% 30.00 in - Calm Calm - N/A   Unknown
9:52 AM 73.9 °F - 69.1 °F 85% 30.00 in - SW 4.6 mph - N/A   Unknown
10:52 AM 75.9 °F - 70.0 °F 82% 30.01 in - Calm Calm - N/A   Unknown
11:52 AM 79.0 °F - 69.1 °F 72% 30.00 in - Variable 4.6 mph - N/A   Unknown
12:52 PM 82.9 °F 87.0 °F 70.0 °F 65% 29.99 in - Variable 6.9 mph - N/A   Unknown
1:52 PM 84.0 °F 86.5 °F 66.9 °F 56% 29.97 in - Variable 5.8 mph - N/A   Unknown
2:52 PM 84.0 °F 85.4 °F 64.0 °F 51% 29.96 in - North 6.9 mph - N/A   Unknown
3:52 PM 84.9 °F 86.6 °F 64.9 °F 51% 29.96 in - NW 4.6 mph - N/A   Unknown
4:52 PM 84.0 °F 84.4 °F 61.0 °F 46% 29.97 in - Variable 5.8 mph - N/A   Unknown
5:52 PM 82.9 °F 82.8 °F 59.0 °F 44% 29.97 in - Variable 5.8 mph - N/A   Unknown
6:52 PM 81.0 °F 80.4 °F 53.1 °F 38% 29.98 in - North 6.9 mph 17.3 mph N/A   Unknown
7:52 PM 78.1 °F - 53.1 °F 42% 29.98 in - North 4.6 mph - N/A   Unknown
8:52 PM 73.0 °F - 54.0 °F 51% 29.99 in - Variable 3.5 mph - N/A   Unknown
9:52 PM 71.1 °F - 55.0 °F 57% 30.01 in - North 9.2 mph - N/A   Unknown
10:52 PM 66.9 °F - 55.0 °F 66% 30.04 in - North 4.6 mph - N/A   Unknown
11:52 PM 64.0 °F - 55.0 °F 73% 30.05 in - Calm Calm - N/A   Unknown